Location: Kershaw
(34.5481°N, 80.5823°W)
Time: 07:26:03
(UTC+00:00)

Explorer 7 - Pass Details

Date: 09 October 2022
Orbit: 481 x 665 km, 50.3° (Epoch: 28 November)

Event Time Altitude Azimuth Distance (km) Brightness Sun altitude
Rises 16:31:47 0° 307° (NW) 3,003 10.3 48.1°
Reaches altitude 10° 16:35:50 10° 339° (NNW) 2,082 9.5 48.2°
Maximum altitude 16:37:31 12° 0° (N) 1,964 9.4 48.3°
Drops below altitude 10° 16:39:12 10° 21° (NNE) 2,065 9.5 48.4°
Sets 16:43:10 0° 54° (NE) 2,944 10.4 48.5°
